Погода в Гейло

Норвегия     60°31′58″N   8°12′33″E
темп.,
°C
ветер,
м/с
пор.,
м/с
влажн.,
%
обл.,
%
осадки,
мм/ч
давл.,
гПа
погр.,
м
10 мая, пн
пн1023:00−1вюв22100100 0.4 100385
02:00−1вюв11100100 0.6 100440
05:000ююз0099100 0.0 100433
08:00+1ссв11100100 0.0 100444
11:00+1св11100100 0.0 100562
14:00+1ссв22100100 2.8 100431
17:00+1св11100100 3.3 100434
20:00+1в11100100 5.2 100221
11 мая, вт
вт1123:00+1ююз229998 0.3 100525
02:00−2юз439110 0.3 100922
05:00+2ююз338871 0.0 100935
08:00+2ю2210069 0.0 101124
11:00+2ююз239996 0.0 1013117
14:00+3юз2397100 0.0 1013185
17:00+3юз1197100 0.0 1014103
20:00+1зюз2299100 0.0 1015126
12 мая, ср
ср1223:000зсз2293100 0.0 101619
02:00−1з2291100 0.0 101513
05:00−1сз1189100 0.2 101510
08:00+1ссз1188100 0.2 101339
11:00+2ссз1190100 0.3 101288
14:00+3с1292100 1.3 1012304
17:00+5с127666 0.1 1011390
20:00+4зсз2286100 0.1 101116
13 мая, чт
чт1323:00+2з228699 0.0 101211
02:00+1з228292 0.0 101312
05:00+1з228355 0.0 101210
08:00+4сз117254 0.0 101267
11:00+7св116496 0.0 1011305
14:00+9св226861 0.0 1010614
17:00+9св238066 0.0 1009501
20:00+7св2287100 0.0 100911
14 мая, пт
пт1423:00+5ссв1193100 0.2 101010
02:00+5с1196100 1.0 101010
05:00+5ссв1195100 0.0 100910
08:00+6ссз119697 0.0 100927
11:00+8всв1288100 0.1 1007127
14:00+7всв2392100 0.3 1008195
17:00+10ююв117499 0.1 1006652
20:00+8сз1188100 1.8 100555